Flag for Chile Weather past 2 weeks in Osorno, Chile

Now
52 °F

Passing clouds.


Feels Like: 50 °F
Forecast: N/A
Wind: 6 mph from Southeast

Location: Puerto Montt Airport

Current Time: Sep 16, 2014 at 7:40:08 PM

Latest Report: Sep 16, 2014 at 7:00 PM


Visibility: N/A

Pressure: 30.15 "Hg

Humidity: 72%

Dew point: 43 °F

Location of OsornoLocation

Historic Weather in Osorno — Graph

°F

Osorno temperature yesterday

Maximum temperature yesterday: 57 °F (at 2:00 PM)
Minimum temperature yesterday: 36 °F (at 8:00 AM)
Average temperature yesterday: 47 °F

Past Weeks' High & Low Weather Summary

 TemperatureHumidityPressure
High59 °F (Sep 3, 2:00 PM)100% (Sep 4, 4:00 AM)30.36 "Hg (Sep 4, 4:00 AM)
Low30 °F (Sep 13, 8:00 AM)55% (Sep 11, 5:00 PM)29.50 "Hg (Sep 8, 7:00 AM)
Average47 °F85%30.03 "Hg
* Reported Sep 1 5:00 PM — Sep 16 6:00 PM, Osorno, Weather by CustomWeather, © 2014

Note: Actual official high and low records may vary slightly from our data, if they occured in-between our weather recording intervals... More about our weather records

Advertising

Osorno weather history for previous 24 hours

 ConditionsComfort  
Time TempWeatherWind HumidityBarometerVisibility
6:00 PM
Sep 16
54 °FPartly sunny.7 mph67%30.15 "HgN/A
5:00 PM54 °FPartly sunny.9 mph67%30.15 "HgN/A
3:00 PM54 °FPartly sunny.5 mph67%30.15 "HgN/A
2:00 PM54 °FPartly sunny.6 mph77%30.15 "HgN/A
1:00 PM54 °FPartly sunny.2 mph72%30.15 "HgN/A
12:00 PM50 °FOvercast.2 mph94%30.15 "HgN/A
11:00 AM48 °FDrizzle. More clouds than sun.3 mph94%30.15 "Hg2 mi
10:00 AM46 °FPartly sunny.3 mph100%30.12 "HgN/A
9:00 AM45 °FPartly sunny.No wind93%30.12 "HgN/A
8:00 AM43 °FFog.2 mph93%30.09 "Hg1 mi
7:00 AM43 °FFog.No wind100%30.07 "Hg1 mi
6:00 AM43 °FOvercast.No wind100%30.07 "HgN/A
5:00 AM43 °FFog.No wind93%30.07 "Hg3 mi
4:00 AM41 °FFog.No wind93%30.07 "Hg2 mi
3:00 AM39 °FFog.No wind93%30.07 "Hg1 mi
2:00 AM39 °FFog.No wind93%30.07 "Hg1 mi
1:00 AM39 °FFog.No wind93%30.07 "Hg3 mi
12:00 AM41 °FFog.No wind93%30.07 "Hg3 mi
11:00 PM
Sep 15
46 °FClear.No wind87%30.07 "Hg10 mi
10:00 PM46 °FPassing clouds.5 mph93%30.07 "HgN/A
9:00 PM48 °FPartly cloudy.5 mph87%30.07 "HgN/A
8:00 PM50 °FPartly cloudy.5 mph82%30.07 "HgN/A
7:00 PM52 °FPassing clouds.3 mph72%30.07 "HgN/A
Weather by CustomWeather, © 2014

See weather overviewHow to use our weather pages